Regional Weather Roundup
Issued by NWS

Home | Current Version | Previous Version | Text Only | Print | Product List | Glossary On
Versions: 1 2 3 4 5 6 7 8 9 10 11 12 13 14 15 16 17 18 19 20 21 22 23 24 25 26 27 28 29 30 31 32 33 34 35 36 37 38 39 40 41 42 43 44 45 46 47 48 49 50
000
ASUS43 KOAX 290710
RWRNE

WEATHER ROUNDUP FOR NEBRASKA
NATIONAL WEATHER SERVICE OMAHA NE
100 AM CST SAT FEB 29 2020

NOTES: SATELLITE DATA IS BEING USED TO AUGMENT CLOUD COVER ABOVE
       12000 FEET.
       "FAIR" INDICATES FEW OR NO CLOUDS BELOW 12,000 FEET WITH NO
       SIGNIFICANT WEATHER AND/OR OBSTRUCTIONS TO VISIBILITY.


NEZ001>004-019>022-054>056-290800-
NEBRASKA PANHANDLE

CITY           SKY/WX    TMP DP  RH WIND       PRES   REMARKS
SCOTTSBLUFF    FAIR      25  16  68 E6        30.06F WCI  18
ALLIANCE       FAIR      27  19  72 SW3       30.04F
CHADRON        FAIR      28  25  88 SW5       30.01F WCI  23
GORDON         FAIR      34  27  75 SW13      30.00F WCI  25
KIMBALL        FAIR      26  19  72 W5        30.10F WCI  21
SIDNEY         FAIR      28  17  63 SW9       30.08F WCI  19
$$

NEZ057>060-069>072-079>082-290800-
SOUTHWEST NEBRASKA

CITY           SKY/WX    TMP DP  RH WIND       PRES   REMARKS
NORTH PLATTE   FAIR      34  23  64 S9        30.11F WCI  27
IMPERIAL       FAIR      33  20  58 SW8       30.11F WCI  26
LEXINGTON      FAIR      27  25  93 CALM      30.14F
MCCOOK         FAIR      36  25  64 SW9       30.14F WCI  29
OGALLALA       FAIR      29  21  71 W5        30.11F WCI  24
$$

NEZ005>010-023>029-035>040-094-290800-
NORTH CENTRAL NEBRASKA

CITY           SKY/WX    TMP DP  RH WIND       PRES   REMARKS
VALENTINE      FAIR      33  25  72 SW7       30.03F WCI  27
AINSWORTH      FAIR      35  24  65 SW9       30.05F WCI  28
BROKEN BOW     FAIR      27  20  75 CALM      30.11F
O`NEILL        FAIR      31  24  77 S6        30.09F WCI  25
ORD            FAIR      24  21  88 CALM      30.11F
THEDFORD       FAIR      33  22  63 S9        30.08F WCI  26
$$

NEZ041-046>049-061>064-073>077-083>087-290800-
SOUTH CENTRAL NEBRASKA

CITY           SKY/WX    TMP DP  RH WIND       PRES   REMARKS
GRAND ISLAND   FAIR      33  22  63 S8        30.14F WCI  26
AURORA         FAIR      32  24  71 S5        30.15F WCI  27
HASTINGS       FAIR      27  21  78 CALM      30.15F
HEBRON         FAIR      26  21  83 CALM      30.19F
HOLDREGE       FAIR      34  24  66 SW6       30.15F WCI  29
KEARNEY        FAIR      33  23  66 SW7       30.15F WCI  27
$$

NEZ011>018-030>034-042>045-290800-
NORTHEAST NEBRASKA

CITY           SKY/WX    TMP DP  RH WIND       PRES   REMARKS
NORFOLK        FAIR      30  27  88 S9        30.14F WCI  22
ALBION         FAIR      30  28  91 SE5       30.14F WCI  26
BLAIR          FAIR      27  26  95 S3        30.17F FOG
COLUMBUS       FAIR      27  24  89 S3        30.18F
FREMONT        FAIR      29  28  95 CALM      30.18F
TEKAMAH        FAIR      27  25  92 S5        30.18F WCI  22
WAYNE          FAIR      26  24  94 S3        30.15S
$$

NEZ050>053-065>068-078-088>093-290800-
SOUTHEAST NEBRASKA

CITY           SKY/WX    TMP DP  RH WIND       PRES   REMARKS
LINCOLN        FAIR      28  25  88 CALM      30.20F
OMAHA EPPLEY   FAIR      26  23  88 S8        30.20F WCI  18
BEATRICE       FAIR      28  26  93 CALM      30.20F
FALLS CITY     FAIR      26  23  88 CALM      30.22F
NEBRASKA CITY  FAIR      29  29  99 S3        30.20F
PLATTSMOUTH    FAIR      29  29  99 SE5       30.19F WCI  24
$$

NEZ044-045-051>053-067-290800-
OMAHA AREA

CITY           SKY/WX    TMP DP  RH WIND       PRES   REMARKS
OMAHA EPPLEY   FAIR      26  23  88 S8        30.20F WCI  18
BLAIR          FAIR      27  26  95 S3        30.17F FOG
FREMONT        FAIR      29  28  95 CALM      30.18F
MILLARD        FAIR      29  26  88 CALM      30.19F
OFFUTT AFB     FAIR      21  19  91 CALM      30.19F FOG
PLATTSMOUTH    FAIR      29  29  99 SE5       30.19F WCI  24
WAHOO          FAIR      27  27  99 SW6       30.19S WCI  20
$$



USA.gov is the U.S. government's official web portal to all federal, state and local government web resources and services.